User: anonymous
Location: Unspecified
(0.0000°N, 0.0000°E)
Time: 09:20:46
(UTC+02:00)
Language:

Atlas Centaur 2 - Orbit

View from above orbital plane
View from above orbital plane
View from above satellite
View from above satellite

Ground track
Ground track

The orbit data is extracted from the following two-line orbital elements,

1 00694U 63047A   14107.94408600  .00004032  00000-0  53193-3 0  4856
2 00694 030.3572 036.3141 0599158 095.7697 335.1360 13.99342864520444
Epoch (UTC): 17 April 2014 22:39:29
Eccentricity: 0.0599158
inclination: 30.3572°
perigee height: 460 km
apogee height: 1332 km
right ascension of ascending node: 36.3141°
argument of perigee: 95.7697°
revolutions per day: 13.99342864
mean anomaly at epoch: 335.1360°
orbit number at epoch: 52044

The dashed part of the orbit path shows where the satellite is in the earth's shadow,  

DLR